"Pseudo-MPEC" for P110hDH

Created 2020 May 23 20:07:17 UT using Find_Orb

Click here for an explanation of pseudo-MPECs

 
 Astrometry: 
     P110hDH  C2020 05 15-,P)f2[[uA_xAstrometry^Li;LiIsBBkCOKfG9sSCV@U8!P3;(LF51
     P110hDH  C2020 05 15=T;2'^6T2EINtOnABBNfxnAjJrXeT*\/yIj79DqKitS=#H8FDf2vF51
     P110hDH  C2020 05 155Sg_%E$Z):C\cgM1Dredacted;'T[KB)=hM)TIrclick-j1gi5!LF51
     P110hDH  C2020 05 23*D.me[JPYQ^x2/toLv/pF(Wj9hereDZ)E,3CoZb**8d6vH+6r1RnF51
     P110hDH  C2020 05 23AH:#%_forp$?S#%@!N!cY_wux9x^Opo[dj]YGb@7KDplEEm.X,0/F51
     P110hDH  C2020 05 23(cHZ!QPexplanationJ2:;oM1k4R(`PSRuRy]0+HsgeAGfrw6^l+F51

Station data:
(F51) Pan-STARRS 1, Haleakala  (N20.707235 W156.255910)  US/Hawaii.
   Observers N. Primak, A. Schultz, S. Watters, J. Thiel, T. Goggia. Measurer
   PS1 Science Consortium. 1.8-m Ritchey-Chrétien + CCD.

Orbital elements:  P110hDH
   Perihelion 2020 Jun 15.140705 +/- 9.19 TT =  3:22:36 (JD 2459015.640705)
Epoch 2020 May 23.0 TT = JDT 2458992.5   Earth MOID: 0.1853   AutoNEOCP
M 348.55983709 +/- 4.5              (J2000 ecliptic)
n   0.49437399 +/- 0.0365           Peri.   26.22806 +/- 7
a   1.58403815 +/- 0.078            Node   233.81875 +/- 0.017
e   0.2438994 +/- 0.0281            Incl.    3.92901 +/- 0.39
P   1.99/728.18d           H 24.8   G  0.15   U 10.5  
q 1.19769206 +/- 0.0213    Q 1.97038424 +/- 0.146
From 6 observations 2020 May 15-23; mean residual 0".10
Residuals in arcseconds: 
200515 F51  .07-  .01-    200515 F51  .09+  .06-    200523 F51  .17-  .15+    
200515 F51  .02-  .07+    200523 F51  .16+  .10-    200523 F51  .01+  .05-    

Ephemerides (geocentric):
Date (UTC) HH   RA              Dec         delta   r     elong  mag " sig PA
---- -- -- --  -------------   -----------  ------ ------ -----  --- ---- ---
2020 05 23 20  15 30 47.090   -15 46 21.46  .19947 1.2101 170.8 22.2 5.97   7
2020 05 23 21  15 30 48.575   -15 45 32.77  .19944 1.2100 170.8 22.2 6.20   8
2020 05 23 22  15 30 50.063   -15 44 44.08  .19940 1.2100 170.8 22.2 6.43   9
2020 05 23 23  15 30 51.552   -15 43 55.39  .19937 1.2099 170.7 22.2 6.66  10
2020 05 24 00  15 30 53.044   -15 43 06.70  .19933 1.2099 170.7 22.2 6.90  11
2020 05 24 01  15 30 54.539   -15 42 18.02  .19930 1.2098 170.6 22.2 7.15  12
2020 05 24 02  15 30 56.036   -15 41 29.34  .19927 1.2098 170.6 22.2 7.39  13
2020 05 24 03  15 30 57.535   -15 40 40.66  .19923 1.2097 170.6 22.2 7.65  14
2020 05 24 04  15 30 59.037   -15 39 51.98  .19920 1.2097 170.5 22.2 7.90  15
2020 05 24 05  15 31 00.541   -15 39 03.31  .19916 1.2097 170.5 22.2 8.16  16
2020 05 24 06  15 31 02.047   -15 38 14.64  .19913 1.2096 170.4 22.2 8.42  16
2020 05 24 07  15 31 03.556   -15 37 25.97  .19910 1.2096 170.4 22.2 8.69  17
2020 05 24 08  15 31 05.068   -15 36 37.31  .19907 1.2095 170.4 22.2 8.96  18
2020 05 24 09  15 31 06.581   -15 35 48.65  .19903 1.2095 170.3 22.2 9.23  18
2020 05 24 10  15 31 08.098   -15 35 00.00  .19900 1.2094 170.3 22.2 9.50  19
2020 05 24 11  15 31 09.616   -15 34 11.34  .19897 1.2094 170.2 22.2 9.78  19
2020 05 24 12  15 31 11.138   -15 33 22.70  .19893 1.2093 170.2 22.2 10.1  20
2020 05 24 13  15 31 12.661   -15 32 34.05  .19890 1.2093 170.2 22.2 10.3  21
2020 05 24 14  15 31 14.187   -15 31 45.42  .19887 1.2093 170.1 22.2 10.6  21
2020 05 24 15  15 31 15.716   -15 30 56.78  .19884 1.2092 170.1 22.2 10.9  22
2020 05 24 16  15 31 17.247   -15 30 08.15  .19881 1.2092 170.0 22.2 11.2  22
2020 05 24 17  15 31 18.781   -15 29 19.53  .19877 1.2091 170.0 22.2 11.5  22
2020 05 24 18  15 31 20.317   -15 28 30.91  .19874 1.2091 170.0 22.2 11.8  23
2020 05 24 19  15 31 21.856   -15 27 42.30  .19871 1.2090 169.9 22.2 12.1  23
2020 05 24 20  15 31 23.397   -15 26 53.69  .19868 1.2090 169.9 22.2 12.4  24
2020 05 24 21  15 31 24.941   -15 26 05.09  .19865 1.2089 169.8 22.2 12.7  24
2020 05 24 22  15 31 26.487   -15 25 16.49  .19862 1.2089 169.8 22.2 13.1  24
2020 05 24 23  15 31 28.036   -15 24 27.90  .19859 1.2089 169.8 22.2 13.4  25
2020 05 25 00  15 31 29.588   -15 23 39.32  .19856 1.2088 169.7 22.2 13.7  25
2020 05 25 01  15 31 31.142   -15 22 50.74  .19853 1.2088 169.7 22.2 14.0  26
2020 05 25 02  15 31 32.698   -15 22 02.17  .19850 1.2087 169.6 22.2 14.3  26
2020 05 25 03  15 31 34.257   -15 21 13.61  .19847 1.2087 169.6 22.2 14.7  26
2020 05 25 04  15 31 35.819   -15 20 25.05  .19844 1.2086 169.6 22.2 15.0  27
2020 05 25 05  15 31 37.384   -15 19 36.50  .19841 1.2086 169.5 22.2 15.3  27
2020 05 25 06  15 31 38.951   -15 18 47.96  .19838 1.2086 169.5 22.2 15.7  27
2020 05 25 07  15 31 40.520   -15 17 59.42  .19835 1.2085 169.4 22.2 16.0  27
2020 05 25 08  15 31 42.093   -15 17 10.89  .19832 1.2085 169.4 22.2 16.3  28
2020 05 25 09  15 31 43.668   -15 16 22.37  .19829 1.2084 169.4 22.3 16.7  28
2020 05 25 10  15 31 45.245   -15 15 33.86  .19826 1.2084 169.3 22.3 17.0  28
2020 05 25 11  15 31 46.825   -15 14 45.35  .19823 1.2083 169.3 22.3 17.4  29
2020 05 25 12  15 31 48.408   -15 13 56.86  .19820 1.2083 169.2 22.3 17.7  29
2020 05 25 13  15 31 49.994   -15 13 08.37  .19818 1.2083 169.2 22.3 18.1  29
2020 05 25 14  15 31 51.582   -15 12 19.89  .19815 1.2082 169.2 22.3 18.4  29
2020 05 25 15  15 31 53.173   -15 11 31.42  .19812 1.2082 169.1 22.3 18.8  30
2020 05 25 16  15 31 54.767   -15 10 42.95  .19809 1.2081 169.1 22.3 19.2  30
2020 05 25 17  15 31 56.363   -15 09 54.50  .19806 1.2081 169.0 22.3 19.5  30
2020 05 25 18  15 31 57.962   -15 09 06.06  .19804 1.2080 169.0 22.3 19.9  30
2020 05 25 19  15 31 59.564   -15 08 17.62  .19801 1.2080 169.0 22.3 20.3  30